"startDT [UTC]","vpos","CH4 [ppm]","stdev(CH4) [ppm]","CO2 [ppm]","stdev(CO2) [ppm]","H2O_reported [%]","stdev(H2O_reported)","CavityPressure [torr]","CavityTemp [C]","OutletValve","CH4_dry [ppm]","CO2_dry [ppm]","DasTemp [C]","EtalonTemp [C]","WarmBoxTemp [C]","MPVPosition","T_ECpre [C]","T_EC1 [C]","T_EC2 [C]","p_inlet [hPa]","p_in [hPa]","p_out [hPa]","T_inlet [C]","RH_inlet [%]","dwpt_inlet [C]","T_vent [C]","RH_vent [%]","dwpt_vent [C]","flow_vent [l min-1]","flow_inlet [l min-1]","dwpt_sample [C]","T_room [C]"
2013-07-09 00:00:00,0.0,1.86532,0.00075,387.995,0.112,0.9891,0.0072,139.997,45.000,31577.28506,1.88413,392.758,33.688,45.051,45.000,0.00,0.13,-272.55,-272.62,-29,586,-7,24.8,23.9,2.8,24.6,24.8,3.1,5.73,2.47,5.7,26.5
2013-07-09 00:01:00,0.0,1.86474,0.00041,388.042,0.054,0.9861,0.0060,139.998,45.000,31579.51312,1.88352,392.788,33.688,45.051,45.000,0.00,0.13,-272.55,-272.62,-29,586,-7,24.8,23.8,2.7,24.6,24.8,3.1,5.73,2.47,5.7,26.5
2013-07-09 00:02:00,0.0,1.86466,0.00082,387.913,0.225,0.9898,0.0148,139.999,45.000,31579.61248,1.88332,392.688,33.685,45.051,45.000,0.00,0.13,-272.55,-272.62,-29,586,-7,24.8,23.9,2.8,24.6,24.8,3.2,5.73,2.47,5.8,26.4
2013-07-09 00:03:00,0.0,1.86450,0.00035,387.668,0.084,1.0085,0.0065,140.003,45.000,31580.86594,1.88370,392.520,33.688,45.051,45.000,0.00,0.13,-272.55,-272.62,-29,586,-7,24.8,24.4,3.1,24.6,25.4,3.5,5.73,2.48,5.7,26.3
2013-07-09 00:04:00,0.0,1.86494,0.00050,387.854,0.207,0.9905,0.0123,140.004,45.000,31581.93797,1.88358,392.636,33.688,45.051,45.000,0.00,0.13,-272.55,-272.62,-29,586,-7,24.8,23.9,2.8,24.6,24.9,3.2,5.73,2.48,5.7,26.4
2013-07-09 00:05:00,0.0,1.86586,0.00045,388.144,0.151,0.9708,0.0134,139.999,45.000,31577.90456,1.88422,392.813,33.688,45.051,45.000,0.00,0.13,-272.55,-272.62,-29,586,-7,24.8,23.5,2.5,24.6,24.4,2.9,5.73,2.47,5.8,26.5
2013-07-09 00:06:00,0.0,1.86583,0.00035,388.334,0.163,0.9552,0.0149,140.000,45.000,31580.36481,1.88394,392.924,33.688,45.051,45.000,0.00,0.13,-272.55,-272.62,-29,586,-7,24.8,23.1,2.3,24.6,24.0,2.7,5.73,2.47,5.7,26.4
2013-07-09 00:07:00,0.0,1.86660,0.00050,388.186,0.126,0.9547,0.0103,140.003,45.000,31578.51379,1.88457,392.789,33.688,45.051,45.000,0.00,0.13,-272.55,-272.62,-29,586,-7,24.8,23.1,2.3,24.6,23.9,2.7,5.73,2.47,5.7,26.5
2013-07-09 00:08:00,0.0,1.86619,0.00082,388.110,0.128,0.9678,0.0105,139.997,45.000,31577.07041,1.88463,392.754,33.683,45.051,45.000,0.00,0.13,-272.55,-272.62,-29,586,-7,24.8,23.3,2.5,24.6,24.3,2.9,5.73,2.47,5.8,26.5
2013-07-09 00:09:00,0.0,1.86628,0.00054,388.200,0.076,0.9609,0.0047,140.002,45.000,31577.39905,1.88433,392.839,33.688,45.051,45.000,0.00,0.13,-272.55,-272.62,-29,586,-7,24.8,23.2,2.4,24.6,24.2,2.8,5.73,2.46,5.7,26.4
2013-07-09 00:10:00,0.0,1.86609,0.00072,388.168,0.160,0.9659,0.0106,139.998,45.000,31575.23393,1.88453,392.810,33.688,45.051,45.000,0.00,0.13,-272.55,-272.62,-29,586,-7,24.8,23.3,2.4,24.7,24.2,2.9,5.73,2.46,5.8,26.5
2013-07-09 00:11:00,0.0,1.86567,0.00033,387.778,0.418,0.9874,0.0267,140.000,45.000,31575.91354,1.88436,392.568,33.688,45.051,45.000,0.00,0.13,-272.55,-272.62,-29,586,-7,24.8,23.8,2.7,24.6,24.7,3.1,5.73,2.46,5.8,26.5
2013-07-09 00:12:00,0.0,1.86521,0.00033,387.872,0.132,0.9963,0.0144,140.004,45.000,31576.45968,1.88411,392.648,33.688,45.051,45.000,0.00,0.13,-272.55,-272.62,-29,586,-7,24.8,24.1,2.9,24.6,25.1,3.3,5.73,2.46,5.8,26.4
2013-07-09 00:13:00,0.0,1.86575,0.00053,388.106,0.156,0.9752,0.0146,140.001,45.000,31576.76259,1.88421,392.786,33.687,45.051,45.000,0.00,0.13,-272.55,-272.62,-29,586,-7,24.8,23.5,2.6,24.6,24.5,3.0,5.73,2.45,5.8,26.5
2013-07-09 00:14:00,0.0,1.86588,0.00034,388.075,0.168,0.9715,0.0099,139.994,45.000,31575.76723,1.88431,392.760,33.688,45.051,45.000,0.00,0.13,-272.55,-272.62,-29,586,-7,24.8,23.4,2.6,24.7,24.4,2.9,5.73,2.45,5.8,26.4
2013-07-09 00:15:00,0.0,1.86571,0.00030,388.062,0.130,0.9716,0.0072,139.996,45.000,31575.65989,1.88408,392.752,33.688,45.051,45.000,0.00,0.13,-272.55,-272.62,-29,586,-7,24.8,23.5,2.6,24.6,24.4,2.9,5.73,2.45,5.8,26.5
2013-07-09 00:16:00,0.0,1.86561,0.00041,388.030,0.203,0.9831,0.0062,140.002,45.000,31577.46976,1.88427,392.744,33.688,45.051,45.000,0.00,0.13,-272.55,-272.62,-29,586,-7,24.8,23.7,2.7,24.6,24.6,3.1,5.73,2.45,5.8,26.5
2013-07-09 00:17:00,0.0,1.86545,0.00042,388.183,0.129,0.9598,0.0068,139.994,45.000,31576.14749,1.88361,392.829,33.688,45.051,45.000,0.00,0.13,-272.55,-272.62,-29,586,-7,24.8,23.2,2.4,24.6,24.1,2.8,5.73,2.45,5.8,26.5
2013-07-09 00:18:00,0.0,1.86574,0.00041,387.802,0.148,0.9878,0.0078,139.995,45.000,31576.31483,1.88439,392.554,33.688,45.051,45.000,0.00,0.13,-272.55,-272.62,-29,586,-7,24.8,23.8,2.8,24.7,24.8,3.2,5.73,2.45,5.8,26.6
2013-07-09 00:19:00,0.0,1.86571,0.00034,387.793,0.158,0.9931,0.0117,140.000,45.000,31575.11124,1.88454,392.571,33.688,45.051,45.000,0.00,0.13,-272.55,-272.62,-29,586,-7,24.8,23.9,2.8,24.6,24.9,3.2,5.73,2.45,5.8,26.6
2013-07-09 00:20:00,0.0,1.86604,0.00022,388.304,0.106,0.9537,0.0104,139.998,45.000,31576.72467,1.88413,392.899,33.688,45.051,45.000,0.00,0.13,-272.55,-272.62,-29,586,-7,24.8,23.1,2.3,24.6,23.9,2.7,5.73,2.46,5.8,26.6
2013-07-09 00:21:00,0.0,1.86594,0.00039,388.007,0.235,0.9711,0.0163,140.001,45.000,31576.76417,1.88435,392.672,33.688,45.051,45.000,0.00,0.13,-272.55,-272.62,-29,586,-7,24.8,23.4,2.5,24.6,24.4,2.9,5.73,2.45,5.7,26.5
2013-07-09 00:22:00,0.0,1.86617,0.00048,388.031,0.208,0.9670,0.0160,140.000,45.000,31577.27941,1.88439,392.687,33.688,45.051,45.000,0.00,0.13,-272.55,-272.62,-29,586,-7,24.8,23.3,2.4,24.7,24.2,2.8,5.73,2.46,5.8,26.5
2013-07-09 00:23:00,0.0,1.86652,0.00029,388.297,0.128,0.9508,0.0152,140.001,45.000,31578.46799,1.88452,392.885,33.688,45.051,45.000,0.00,0.13,-272.55,-272.62,-29,586,-7,24.9,22.9,2.3,24.7,23.9,2.6,5.73,2.46,5.8,26.4
2013-07-09 00:24:00,0.0,1.86664,0.00039,388.384,0.101,0.9413,0.0099,140.003,45.000,31578.13189,1.88446,392.906,33.686,45.051,45.000,0.00,0.13,-272.55,-272.62,-29,586,-7,24.9,22.6,2.1,24.7,23.5,2.5,5.73,2.46,5.8,26.4
2013-07-09 00:25:00,0.0,1.86687,0.00044,388.351,0.124,0.9391,0.0071,139.999,45.000,31577.48202,1.88470,392.869,33.688,45.051,45.000,0.00,0.13,-272.55,-272.62,-29,586,-7,24.9,22.6,2.1,24.7,23.5,2.4,5.73,2.47,5.8,26.4
2013-07-09 00:26:00,0.0,1.86691,0.00048,388.543,0.127,0.9254,0.0064,139.993,45.000,31575.63264,1.88442,393.006,33.688,45.051,45.000,0.00,0.13,-272.55,-272.62,-29,586,-7,24.8,22.2,1.8,24.7,23.1,2.2,5.73,2.47,5.8,26.3
2013-07-09 00:27:00,0.0,1.86615,0.00026,388.154,0.181,0.9519,0.0119,140.000,45.000,31577.98338,1.88417,392.745,33.687,45.051,45.000,0.00,0.13,-272.54,-272.61,-29,586,-7,24.8,22.9,2.2,24.7,23.8,2.6,5.73,2.47,5.8,26.3
2013-07-09 00:28:00,0.0,1.86558,0.00056,387.605,0.226,0.9931,0.0127,140.001,45.000,31578.92913,1.88445,392.374,33.688,45.051,45.000,0.00,0.13,-272.55,-272.62,-29,586,-7,24.8,24.0,2.9,24.6,24.9,3.2,5.73,2.48,5.8,26.3
2013-07-09 00:29:00,0.0,1.86585,0.00019,388.004,0.306,0.9768,0.0193,140.000,45.000,31578.48535,1.88436,392.697,33.688,45.051,45.000,0.00,0.13,-272.55,-272.62,-29,586,-7,24.8,23.6,2.6,24.6,24.6,3.0,5.73,2.47,5.8,26.5
2013-07-09 00:30:00,0.0,1.86565,0.00035,388.146,0.207,0.9557,0.0125,139.998,45.000,31578.10527,1.88373,392.756,33.688,45.051,45.000,0.00,0.13,-272.55,-272.62,-29,586,-7,24.8,23.0,2.3,24.7,23.9,2.7,5.73,2.47,5.8,26.4
2013-07-09 00:31:00,0.0,1.86581,0.00039,387.994,0.204,0.9767,0.0111,140.003,45.000,31578.07885,1.88425,392.686,33.694,45.051,45.000,0.00,0.13,-272.55,-272.62,-29,586,-7,24.9,23.5,2.6,24.7,24.4,3.0,5.73,2.47,5.8,26.4
2013-07-09 00:32:00,0.0,1.86639,0.00063,388.249,0.106,0.9548,0.0057,139.999,45.000,31576.37483,1.88461,392.854,33.688,45.051,45.000,0.00,0.13,-272.55,-272.62,-29,586,-7,24.9,23.1,2.3,24.7,23.9,2.7,5.73,2.47,5.8,26.4
2013-07-09 00:33:00,0.0,1.86653,0.00048,388.272,0.114,0.9490,0.0088,140.003,45.000,31577.31638,1.88441,392.841,33.688,45.051,45.000,0.00,0.13,-272.55,-272.62,-29,586,-7,24.8,22.9,2.2,24.7,23.8,2.6,5.73,2.47,5.8,26.3
2013-07-09 00:34:00,0.0,1.86608,0.00036,387.979,0.112,0.9651,0.0063,140.003,45.000,31578.35721,1.88437,392.627,33.674,45.051,45.000,0.00,0.13,-272.55,-272.62,-29,586,-7,24.8,23.2,2.4,24.7,24.1,2.8,5.73,2.47,5.8,26.4
2013-07-09 00:35:00,0.0,1.86594,0.00027,388.033,0.170,0.9636,0.0086,140.004,45.000,31578.72166,1.88418,392.683,33.645,45.051,45.000,0.00,0.13,-272.55,-272.62,-29,586,-7,24.8,23.2,2.4,24.7,24.1,2.8,5.73,2.47,5.8,26.4
2013-07-09 00:36:00,0.0,1.86587,0.00051,388.001,0.177,0.9683,0.0113,139.993,45.000,31574.62078,1.88429,392.653,33.625,45.051,45.000,0.00,0.13,-272.55,-272.62,-29,586,-7,24.8,23.4,2.5,24.7,24.3,2.9,5.73,2.46,5.7,26.4
2013-07-09 00:37:00,0.0,1.86594,0.00063,388.242,0.132,0.9562,0.0121,139.996,45.000,31573.52896,1.88398,392.840,33.627,45.051,45.000,0.00,0.13,-272.55,-272.62,-29,586,-7,24.8,23.0,2.3,24.6,23.9,2.7,5.73,2.46,5.7,26.4
2013-07-09 00:38:00,0.0,1.86616,0.00067,387.858,0.156,0.9735,0.0147,140.002,45.000,31574.11243,1.88443,392.556,33.572,45.051,45.000,0.00,0.13,-272.55,-272.62,-29,586,-7,24.8,23.6,2.6,24.7,24.4,3.0,5.73,2.46,5.7,26.4
2013-07-09 00:39:00,0.0,1.86631,0.00044,388.006,0.225,0.9705,0.0163,140.001,44.999,31573.96398,1.88486,392.664,33.545,45.051,45.000,0.00,0.13,-272.55,-272.62,-29,586,-7,24.8,23.4,2.5,24.6,24.3,2.9,5.73,2.46,5.7,26.4
2013-07-09 00:40:00,0.0,1.86616,0.00058,388.103,0.082,0.9543,0.0040,140.004,45.000,31574.67318,1.88421,392.710,33.510,45.051,45.000,0.00,0.13,-272.55,-272.62,-29,586,-7,24.8,23.1,2.3,24.6,24.0,2.7,5.73,2.46,5.7,26.5
2013-07-09 00:41:00,0.0,1.86599,0.00041,387.957,0.117,0.9673,0.0041,139.999,44.999,31572.20708,1.88433,392.613,33.464,45.051,45.000,0.00,0.13,-272.55,-272.62,-29,586,-7,24.8,23.4,2.5,24.6,24.3,2.9,5.73,2.46,5.7,26.4
2013-07-09 00:42:00,0.0,1.86601,0.00029,387.894,0.155,0.9730,0.0079,139.995,44.999,31569.49455,1.88446,392.579,33.437,45.051,45.000,0.00,0.13,-272.55,-272.62,-29,586,-7,24.8,23.6,2.6,24.6,24.5,2.9,5.73,2.46,5.7,26.3
2013-07-09 00:43:00,0.0,1.86582,0.00028,387.628,0.070,0.9916,0.0053,140.000,45.000,31570.01563,1.88461,392.402,33.388,45.051,45.000,0.00,0.13,-272.55,-272.62,-29,586,-7,24.7,24.0,2.8,24.6,24.9,3.2,5.73,2.46,5.6,26.3
2013-07-09 00:44:00,0.0,1.86613,0.00051,387.761,0.114,0.9794,0.0079,139.998,44.999,31568.35616,1.88459,392.472,33.348,45.051,45.000,0.00,0.13,-272.55,-272.62,-29,586,-7,24.7,23.8,2.7,24.6,24.7,3.0,5.73,2.46,5.7,26.2
2013-07-09 00:45:00,0.0,1.86610,0.00059,387.852,0.090,0.9748,0.0048,140.001,44.999,31567.60526,1.88473,392.539,33.315,45.051,45.000,0.00,0.13,-272.55,-272.62,-29,586,-7,24.7,23.7,2.6,24.5,24.5,2.9,5.73,2.46,5.6,26.2
2013-07-09 00:46:00,0.0,1.86563,0.00027,387.594,0.247,0.9870,0.0185,140.004,44.999,31565.45448,1.88419,392.344,33.254,45.051,45.000,0.00,0.13,-272.55,-272.62,-29,586,-7,24.7,24.1,2.8,24.5,24.9,3.1,5.73,2.46,5.6,26.3
2013-07-09 00:47:00,0.0,1.86613,0.00030,387.750,0.134,0.9866,0.0109,139.997,44.999,31562.56427,1.88492,392.495,33.230,45.051,45.000,0.00,0.13,-272.55,-272.62,-29,586,-7,24.7,24.0,2.8,24.5,24.9,3.1,5.73,2.45,5.6,26.2
2013-07-09 00:48:00,0.0,1.86530,0.00037,387.961,0.059,0.9666,0.0022,139.996,44.999,31560.16463,1.88374,392.620,33.189,45.051,45.000,0.00,0.13,-272.55,-272.62,-29,586,-7,24.6,23.5,2.4,24.5,24.4,2.8,5.73,2.45,5.6,26.2
2013-07-09 00:49:00,0.0,1.86557,0.00031,387.595,0.169,0.9893,0.0115,139.996,44.999,31557.98282,1.88421,392.357,33.165,45.051,45.000,0.00,0.13,-272.55,-272.62,-29,586,-7,24.7,24.1,2.8,24.5,24.9,3.1,5.73,2.45,5.6,26.1
2013-07-09 00:50:00,0.0,1.86554,0.00017,387.732,0.197,0.9815,0.0107,140.002,44.999,31561.17273,1.88411,392.471,33.130,45.051,45.000,0.00,0.13,-272.55,-272.62,-29,586,-7,24.7,24.0,2.7,24.5,24.8,3.0,5.73,2.46,5.6,26.1
2013-07-09 00:51:00,0.0,1.86529,0.00050,387.394,0.121,1.0087,0.0062,140.000,44.999,31559.22388,1.88444,392.244,33.113,45.051,45.000,0.00,0.13,-272.55,-272.62,-29,586,-7,24.6,24.6,3.1,24.5,25.5,3.4,5.73,2.46,5.6,26.1
2013-07-09 00:52:00,0.0,1.86408,0.00059,387.000,0.263,1.0347,0.0166,140.000,45.000,31558.03708,1.88381,391.992,33.076,45.051,45.000,0.00,0.13,-272.55,-272.62,-29,586,-7,24.6,25.3,3.4,24.5,26.2,3.8,5.73,2.46,5.5,26.1
2013-07-09 00:53:00,0.0,1.86474,0.00069,387.535,0.187,1.0116,0.0224,139.997,45.000,31555.29949,1.88382,392.375,33.060,45.051,45.000,0.00,0.13,-272.55,-272.62,-29,586,-7,24.6,24.7,3.1,24.4,25.7,3.5,5.73,2.47,5.5,26.0
2013-07-09 00:54:00,0.0,1.86512,0.00052,387.605,0.180,0.9938,0.0122,139.999,45.000,31556.92650,1.88397,392.400,33.039,45.051,45.000,0.00,0.13,-272.55,-272.62,-29,586,-6,24.6,24.3,2.8,24.4,25.1,3.2,5.73,2.47,5.6,26.0
2013-07-09 00:55:00,0.0,1.86512,0.00037,387.687,0.175,0.9884,0.0110,140.002,45.000,31556.57577,1.88375,392.444,33.003,45.051,45.000,0.00,0.13,-272.55,-272.62,-29,586,-7,24.6,24.2,2.8,24.4,25.1,3.1,5.73,2.47,5.5,26.1
2013-07-09 00:56:00,0.0,1.86542,0.00052,387.512,0.125,0.9946,0.0086,140.001,45.000,31553.32563,1.88436,392.290,33.000,45.051,45.000,0.00,0.13,-272.55,-272.62,-29,585,-6,24.6,24.4,2.9,24.4,25.2,3.2,5.73,2.48,5.5,26.2
2013-07-09 00:57:00,0.0,1.86531,0.00031,387.431,0.264,1.0020,0.0168,140.000,45.000,31549.82313,1.88420,392.264,32.987,45.051,45.000,0.00,0.13,-272.55,-272.62,-29,585,-6,24.5,24.6,3.0,24.4,25.4,3.3,5.73,2.48,5.5,26.2
2013-07-09 00:58:00,0.0,1.86522,0.00037,387.164,0.141,1.0208,0.0073,139.997,44.999,31550.03496,1.88459,392.069,32.968,45.051,45.000,0.00,0.13,-272.55,-272.62,-29,585,-6,24.5,25.1,3.2,24.4,26.1,3.7,5.73,2.48,5.5,26.2
2013-07-09 00:59:00,0.0,1.86636,0.00045,387.465,0.063,0.9994,0.0059,140.002,44.999,31547.26534,1.88526,392.273,32.938,45.051,45.000,0.00,0.13,-272.55,-272.62,-29,585,-6,24.5,24.6,2.9,24.4,25.5,3.4,5.73,2.48,5.5,26.1
2013-07-09 01:00:00,0.0,1.86603,0.00045,387.185,0.147,1.0174,0.0130,139.998,45.000,31545.61550,1.88525,392.091,32.927,45.051,45.000,0.00,0.13,-272.55,-272.62,-29,585,-6,24.5,25.1,3.3,24.3,26.0,3.6,5.73,2.47,5.5,26.1
2013-07-09 01:01:00,0.0,1.86608,0.00045,387.006,0.131,1.0270,0.0052,140.002,45.000,31547.96649,1.88561,391.954,32.883,45.051,45.000,0.00,0.13,-272.55,-272.62,-28,585,-6,24.5,25.3,3.3,24.3,26.3,3.8,5.73,2.48,5.5,26.0
2013-07-09 01:02:00,0.0,1.86566,0.00051,387.192,0.193,1.0201,0.0079,139.996,45.000,31544.92783,1.88515,392.084,32.875,45.051,45.000,0.00,0.13,-272.55,-272.62,-28,585,-6,24.5,25.1,3.2,24.3,26.2,3.7,5.73,2.47,5.5,26.0
2013-07-09 01:03:00,0.0,1.86507,0.00034,387.214,0.111,1.0107,0.0046,140.001,45.000,31547.06160,1.88426,392.082,32.875,45.051,45.000,0.00,0.13,-272.55,-272.62,-28,585,-6,24.4,24.9,3.1,24.3,25.9,3.5,5.73,2.47,5.5,26.0
2013-07-09 01:04:00,0.0,1.86511,0.00037,387.423,0.185,1.0029,0.0119,139.997,45.000,31544.25436,1.88409,392.243,32.877,45.052,45.000,0.00,0.13,-272.55,-272.62,-29,585,-6,24.4,24.7,3.0,24.3,25.6,3.4,5.73,2.47,5.5,26.1
2013-07-09 01:05:00,0.0,1.86580,0.00037,387.483,0.117,0.9926,0.0046,140.002,45.000,31544.66967,1.88457,392.255,32.917,45.052,45.000,0.00,0.13,-272.55,-272.62,-29,585,-6,24.4,24.4,2.8,24.3,25.3,3.2,5.73,2.47,5.5,26.0
2013-07-09 01:06:00,0.0,1.86552,0.00048,387.161,0.238,1.0053,0.0160,140.001,45.000,31545.03154,1.88466,392.009,32.938,45.052,45.000,0.00,0.33,-270.55,-270.56,-29,585,-6,24.4,24.9,3.1,24.3,25.8,3.5,5.42,2.56,1.6,26.1
2013-07-09 01:07:00,0.0,1.86566,0.00097,387.548,0.082,0.9928,0.0089,140.001,45.000,31545.74268,1.88425,392.318,32.953,45.052,45.000,0.00,0.13,-272.55,-272.62,-28,585,-6,24.4,24.5,2.8,24.3,25.4,3.2,5.73,2.46,5.5,26.1
2013-07-09 01:08:00,0.0,1.86784,0.00089,387.294,0.120,0.9995,0.0082,140.002,45.000,31543.58446,1.88686,392.106,33.000,45.052,45.000,0.00,0.13,-272.55,-272.62,-29,585,-6,24.4,24.7,2.9,24.3,25.6,3.3,5.73,2.47,5.5,26.1
2013-07-09 01:09:00,0.0,1.86660,0.00111,387.224,0.313,1.0144,0.0173,139.999,45.001,31543.66648,1.88592,392.090,33.002,45.052,45.000,0.00,0.13,-272.55,-272.62,-28,585,-6,24.4,25.0,3.1,24.3,26.0,3.6,5.73,2.47,5.6,26.2
2013-07-09 01:10:00,0.0,1.86704,0.00048,387.505,0.064,0.9857,0.0038,140.004,45.000,31545.79268,1.88572,392.262,33.051,45.051,45.000,0.00,0.13,-272.55,-272.62,-28,585,-6,24.4,24.3,2.7,24.3,25.2,3.1,5.73,2.46,5.6,26.2
2013-07-09 01:11:00,0.0,1.86669,0.00072,387.380,0.164,0.9952,0.0092,139.998,45.001,31544.58053,1.88559,392.155,33.068,45.051,45.000,0.00,0.13,-272.55,-272.62,-28,585,-6,24.4,24.5,2.8,24.3,25.4,3.3,5.73,2.46,5.6,26.1
2013-07-09 01:12:00,0.0,1.86675,0.00030,387.519,0.110,0.9818,0.0056,140.005,45.001,31545.38281,1.88532,392.250,33.119,45.052,45.000,0.00,0.13,-272.55,-272.62,-28,585,-6,24.4,24.3,2.7,24.3,25.2,3.1,5.73,2.47,5.6,26.1
2013-07-09 01:13:00,0.0,1.86643,0.00039,387.251,0.085,0.9970,0.0049,139.999,45.000,31547.79149,1.88540,392.057,33.129,45.051,45.000,0.00,0.13,-272.55,-272.62,-28,585,-6,24.4,24.6,2.9,24.3,25.5,3.3,5.73,2.46,5.6,26.1
2013-07-09 01:14:00,0.0,1.86671,0.00059,387.189,0.089,1.0043,0.0028,140.001,45.000,31549.49501,1.88556,392.009,33.164,45.051,45.000,0.00,0.13,-272.55,-272.61,-28,585,-6,24.4,24.8,3.0,24.3,25.7,3.4,5.73,2.46,5.6,26.1
2013-07-09 01:15:00,0.0,1.86790,0.00200,386.896,0.257,1.0299,0.0195,140.000,45.001,31550.22791,1.88767,391.855,33.188,45.051,45.000,0.00,0.13,-272.55,-272.62,-28,585,-6,24.4,25.4,3.4,24.3,26.4,3.8,5.73,2.46,5.6,26.1
2013-07-09 01:16:00,0.0,1.86570,0.00064,387.360,0.272,1.0001,0.0223,140.004,45.000,31553.31227,1.88463,392.163,33.201,45.051,45.000,0.00,0.13,-272.55,-272.62,-28,585,-6,24.4,24.6,2.9,24.3,25.6,3.4,5.73,2.46,5.6,26.2
2013-07-09 01:17:00,0.0,1.86653,0.00041,387.459,0.231,0.9802,0.0150,140.001,45.001,31551.59665,1.88511,392.181,33.238,45.052,45.000,0.00,0.13,-272.55,-272.62,-28,585,-6,24.5,24.2,2.7,24.3,25.1,3.0,5.73,2.45,5.6,26.3
2013-07-09 01:18:00,0.0,1.86676,0.00032,387.514,0.044,0.9816,0.0063,139.998,45.000,31552.30889,1.88537,392.229,33.250,45.051,45.000,0.00,0.13,-272.55,-272.62,-28,585,-6,24.5,24.2,2.7,24.3,25.1,3.1,5.73,2.46,5.6,26.2
2013-07-09 01:19:00,0.0,1.86682,0.00039,387.742,0.073,0.9642,0.0048,140.001,45.000,31556.64291,1.88506,392.373,33.268,45.051,45.000,0.00,0.13,-272.55,-272.62,-28,585,-6,24.5,23.7,2.4,24.3,24.6,2.8,5.73,2.46,5.7,26.3
2013-07-09 01:20:00,0.0,1.86689,0.00045,387.727,0.062,0.9616,0.0039,140.003,45.000,31557.73899,1.88512,392.358,33.309,45.051,45.000,0.00,0.13,-272.55,-272.62,-28,585,-6,24.5,23.7,2.4,24.3,24.5,2.8,5.73,2.45,5.7,26.3
2013-07-09 01:21:00,0.0,1.86715,0.00017,387.641,0.049,0.9650,0.0058,140.003,45.001,31559.21217,1.88543,392.279,33.325,45.051,45.000,0.00,0.13,-272.55,-272.62,-28,585,-6,24.5,23.7,2.5,24.3,24.6,2.8,5.73,2.46,5.7,26.3
2013-07-09 01:22:00,0.0,1.86717,0.00038,387.408,0.148,0.9798,0.0080,140.004,45.001,31561.02462,1.88568,392.124,33.355,45.051,45.000,0.00,0.13,-272.55,-272.62,-28,585,-6,24.5,24.1,2.7,24.4,25.0,3.0,5.73,2.45,5.7,26.3
2013-07-09 01:23:00,0.0,1.86733,0.00045,387.639,0.150,0.9717,0.0085,139.997,45.001,31558.97053,1.88574,392.306,33.375,45.052,45.000,0.00,0.13,-272.55,-272.62,-28,585,-6,24.5,23.8,2.5,24.4,24.8,3.0,5.73,2.46,5.7,26.4
2013-07-09 01:24:00,0.0,1.86735,0.00026,387.598,0.110,0.9696,0.0045,139.999,45.000,31558.55851,1.88580,392.273,33.385,45.051,45.000,0.00,0.13,-272.55,-272.62,-28,585,-6,24.5,23.8,2.5,24.4,24.7,2.9,5.73,2.46,5.7,26.3
2013-07-09 01:25:00,0.0,1.86739,0.00019,387.602,0.173,0.9699,0.0070,139.999,45.000,31561.42637,1.88571,392.277,33.421,45.051,45.000,0.00,0.13,-272.55,-272.62,-28,585,-6,24.5,23.8,2.5,24.4,24.7,2.9,5.73,2.46,5.7,26.4
2013-07-09 01:26:00,0.0,1.86671,0.00038,387.121,0.271,1.0013,0.0144,140.001,45.000,31563.40549,1.88575,391.913,33.438,45.051,45.000,0.00,0.13,-272.55,-272.62,-28,585,-6,24.5,24.5,2.9,24.4,25.4,3.3,5.73,2.46,5.7,26.5
2013-07-09 01:27:00,0.0,1.86726,0.00027,387.440,0.109,0.9795,0.0100,140.001,45.000,31563.12037,1.88579,392.155,33.450,45.051,45.000,0.00,0.13,-272.55,-272.62,-28,585,-6,24.5,24.0,2.6,24.4,24.9,3.0,5.73,2.46,5.7,26.4
2013-07-09 01:28:00,0.0,1.86784,0.00052,387.725,0.057,0.9609,0.0083,140.003,45.000,31565.51021,1.88602,392.340,33.487,45.051,45.000,0.00,0.13,-272.55,-272.62,-28,585,-6,24.6,23.5,2.4,24.4,24.5,2.8,5.73,2.46,5.7,26.4
2013-07-09 01:29:00,0.0,1.86820,0.00046,387.691,0.223,0.9606,0.0110,140.002,45.000,31565.90068,1.88637,392.308,33.501,45.051,45.000,0.00,0.13,-272.55,-272.62,-28,585,-6,24.6,23.5,2.4,24.4,24.4,2.7,5.73,2.46,5.7,26.5
2013-07-09 01:30:00,0.0,1.86785,0.00061,387.424,0.168,0.9796,0.0111,140.006,45.000,31569.59644,1.88648,392.147,33.519,45.051,45.000,0.00,0.13,-272.55,-272.62,-28,585,-7,24.6,24.0,2.7,24.5,24.9,3.1,5.73,2.46,5.7,26.4
2013-07-09 01:31:00,0.0,1.86800,0.00023,387.683,0.084,0.9662,0.0046,140.002,45.000,31569.20229,1.88633,392.314,33.550,45.051,45.000,0.00,0.13,-272.55,-272.62,-28,585,-6,24.6,23.6,2.4,24.5,24.5,2.9,5.73,2.47,5.8,26.4
2013-07-09 01:32:00,0.0,1.86786,0.00048,387.488,0.129,0.9749,0.0062,140.006,45.000,31571.23031,1.88631,392.183,33.563,45.051,45.000,0.00,0.13,-272.55,-272.62,-28,585,-7,24.6,23.8,2.6,24.4,24.7,3.0,5.73,2.47,5.8,26.4
2013-07-09 01:33:00,0.0,1.86783,0.00018,387.333,0.157,0.9821,0.0099,140.002,45.000,31573.18496,1.88651,392.053,33.574,45.051,45.000,0.00,0.13,-272.55,-272.62,-28,585,-7,24.6,24.0,2.7,24.4,24.9,3.1,5.73,2.47,5.8,26.4
2013-07-09 01:34:00,0.0,1.86745,0.00023,387.581,0.166,0.9730,0.0099,140.002,45.001,31571.88358,1.88590,392.261,33.623,45.051,45.000,0.00,0.13,-272.55,-272.61,-28,585,-7,24.6,23.7,2.5,24.5,24.7,3.0,5.73,2.48,5.8,26.5
2013-07-09 01:35:00,0.0,1.86770,0.00035,387.707,0.105,0.9654,0.0064,140.000,45.001,31573.34765,1.88599,392.350,33.625,45.051,45.000,0.00,0.13,-272.55,-272.62,-28,586,-7,24.7,23.5,2.4,24.5,24.4,2.8,5.73,2.47,5.8,26.6
2013-07-09 01:36:00,0.0,1.86808,0.00030,387.703,0.056,0.9636,0.0031,140.001,45.000,31573.80099,1.88637,392.334,33.656,45.052,45.000,0.00,0.13,-272.55,-272.62,-29,586,-7,24.6,23.5,2.4,24.5,24.4,2.8,5.73,2.48,5.8,26.6
2013-07-09 01:37:00,0.0,1.86788,0.00028,387.636,0.045,0.9639,0.0021,139.998,45.000,31575.83688,1.88618,392.276,33.688,45.051,45.000,0.00,0.13,-272.55,-272.62,-29,585,-7,24.6,23.5,2.4,24.5,24.4,2.8,5.73,2.47,5.8,26.6
2013-07-09 01:38:00,0.0,1.86785,0.00025,387.301,0.142,0.9855,0.0086,140.000,45.000,31576.92856,1.88651,392.052,33.690,45.051,45.000,0.00,0.13,-272.55,-272.62,-29,586,-7,24.7,24.0,2.7,24.5,24.9,3.1,5.73,2.47,5.8,26.6
2013-07-09 01:39:00,0.0,1.86673,0.00023,387.267,0.117,0.9983,0.0082,140.002,45.000,31579.89912,1.88574,392.053,33.712,45.051,45.000,0.00,0.13,-272.55,-272.62,-29,586,-7,24.7,24.3,2.9,24.5,25.2,3.3,5.73,2.47,5.8,26.6
2013-07-09 01:40:00,0.0,1.86660,0.00011,387.092,0.126,1.0105,0.0069,140.002,45.000,31581.78874,1.88575,391.972,33.745,45.051,45.000,0.00,0.13,-272.55,-272.62,-29,586,-7,24.7,24.6,3.1,24.5,25.6,3.5,5.73,2.46,5.9,26.5
2013-07-09 01:41:00,0.0,1.86655,0.00039,387.029,0.277,1.0225,0.0162,140.002,45.000,31581.60803,1.88599,391.928,33.750,45.051,45.000,0.00,0.13,-272.55,-272.62,-29,586,-7,24.7,24.8,3.2,24.6,25.9,3.7,5.73,2.46,5.9,26.6
2013-07-09 01:42:00,0.0,1.86670,0.00018,387.236,0.270,1.0030,0.0162,140.004,45.000,31585.28489,1.88567,392.080,33.750,45.051,45.000,0.00,0.13,-272.55,-272.62,-29,586,-7,24.7,24.4,3.0,24.6,25.3,3.4,5.73,2.46,5.9,26.6
2013-07-09 01:43:00,0.0,1.86688,0.00049,387.155,0.212,1.0172,0.0154,140.006,45.000,31583.13425,1.88615,392.026,33.761,45.051,45.000,0.00,0.13,-272.55,-272.62,-29,586,-7,24.7,24.6,3.1,24.6,25.7,3.7,5.73,2.45,5.9,26.5
2013-07-09 01:44:00,0.0,1.86734,0.00042,387.462,0.044,0.9878,0.0046,139.999,45.000,31583.63993,1.88613,392.218,33.793,45.051,45.000,0.00,0.13,-272.55,-272.62,-29,586,-7,24.7,24.0,2.8,24.6,24.9,3.2,5.73,2.45,5.9,26.6
2013-07-09 01:45:00,0.0,1.86760,0.00043,387.438,0.118,0.9911,0.0076,140.000,45.000,31584.86531,1.88631,392.211,33.801,45.051,45.000,0.00,0.13,-272.55,-272.62,-29,586,-7,24.7,24.0,2.8,24.6,24.9,3.2,5.73,2.44,5.9,26.7
2013-07-09 01:46:00,0.0,1.86785,0.00045,387.213,0.111,1.0058,0.0082,140.002,45.000,31586.76851,1.88692,392.059,33.808,45.051,45.000,0.00,0.13,-272.55,-272.62,-29,586,-7,24.8,24.3,3.0,24.6,25.3,3.4,5.73,2.45,5.9,26.7
2013-07-09 01:47:00,0.0,1.86794,0.00056,387.273,0.090,0.9991,0.0086,139.998,45.000,31585.16005,1.88683,392.070,33.813,45.051,45.000,0.00,0.13,-272.55,-272.62,-29,586,-7,24.8,24.2,3.0,24.6,25.2,3.4,5.73,2.45,5.9,26.7